AIC412 VOMM-WSSS

Flight info

Callsign AIC412
Flight time N/A
Altitude 37000
Route IDASO2B IDASO N571 LAGOG/N0456F390 N571 GUNIP R467 VKL A464 ARAMA ARAMA1A
Aircraft A20N/M-SDE2E3FGHIRWXY/LB1

Departure

Time 2026-04-22 15:06
Airport Chennai International Airport (VOMM)

Arrival

Time N/A
Airport Singapore Changi Airport (WSSS)
Time Latitude Longitude Altitude Speed Heading
2026-04-22 14:56 12.98418 80.16265 51 ft 0 kts 83°
2026-04-22 14:58 12.98419 80.16274 50 ft 7 kts 83°
2026-04-22 14:58 12.98437 80.16340 52 ft 8 kts 64°
2026-04-22 14:59 12.98459 80.16378 52 ft 5 kts 69°
2026-04-22 14:59 12.98466 80.16401 52 ft 5 kts 74°
2026-04-22 14:59 12.98483 80.16465 56 ft 13 kts 75°
2026-04-22 14:59 12.98519 80.16572 50 ft 17 kts 63°
2026-04-22 15:00 12.98560 80.16677 51 ft 7 kts 69°
2026-04-22 15:00 12.98583 80.16730 52 ft 10 kts 65°
2026-04-22 15:00 12.98632 80.16762 57 ft 7 kts 345°
2026-04-22 15:00 12.98705 80.16736 57 ft 16 kts 340°
2026-04-22 15:01 12.98748 80.16741 57 ft 7 kts 30°
2026-04-22 15:01 12.98780 80.16800 57 ft 13 kts 68°
2026-04-22 15:01 12.98823 80.16919 54 ft 23 kts 70°
2026-04-22 15:01 12.98892 80.17099 54 ft 31 kts 65°
2026-04-22 15:02 12.98983 80.17312 51 ft 33 kts 63°
2026-04-22 15:02 12.99069 80.17533 54 ft 34 kts 67°
2026-04-22 15:02 12.99099 80.17617 54 ft 0 kts 61°
2026-04-22 15:02 12.99101 80.17621 55 ft 1 kts 61°
2026-04-22 15:03 12.99108 80.17631 56 ft 2 kts 52°
2026-04-22 15:03 12.99137 80.17672 58 ft 12 kts 62°
2026-04-22 15:03 12.99187 80.17700 57 ft 11 kts
2026-04-22 15:03 12.99211 80.17729 59 ft 6 kts 68°
2026-04-22 15:04 12.99235 80.17799 61 ft 14 kts 73°
2026-04-22 15:04 12.99276 80.17920 58 ft 22 kts 65°
2026-04-22 15:04 12.99335 80.18056 60 ft 11 kts 67°
2026-04-22 15:04 12.99353 80.18093 58 ft 6 kts 61°
2026-04-22 15:05 12.99388 80.18134 62 ft 7 kts 24°
2026-04-22 15:05 12.99410 80.18132 61 ft 8 kts 331°
2026-04-22 15:05 12.99398 80.17933 59 ft 35 kts 253°
2026-04-22 15:05 12.99282 80.17625 57 ft 83 kts 246°
2026-04-22 15:06 12.99075 80.17123 53 ft 143 kts 252°
2026-04-22 15:06 12.98567 80.15486 856 ft 196 kts 244°
2026-04-22 15:06 12.98134 80.14693 1871 ft 193 kts 246°
2026-04-22 15:06 12.98265 80.12859 3375 ft 212 kts 310°
2026-04-22 15:07 12.99038 80.12228 4103 ft 221 kts 340°
2026-04-22 15:07 13.00603 80.12152 5168 ft 242 kts 12°
2026-04-22 15:07 13.03088 80.12753 5621 ft 308 kts 11°
2026-04-22 15:08 12.98338 80.16318 55 ft 0 kts 156°
2026-04-22 15:11 12.98350 80.16312 48 ft 3 kts 156°
2026-04-22 15:11 12.98367 80.16304 49 ft 3 kts 156°
2026-04-22 15:11 12.98385 80.16296 53 ft 3 kts 156°
2026-04-22 15:11 12.98402 80.16289 47 ft 3 kts 149°
2026-04-22 15:12 12.98416 80.16275 49 ft 3 kts 105°
2026-04-22 15:12 12.98416 80.16255 49 ft 3 kts 61°
2026-04-22 15:12 12.98406 80.16238 47 ft 3 kts 67°
2026-04-22 15:12 12.98404 80.16233 47 ft 0 kts 67°
2026-04-22 15:13 12.98413 80.16254 49 ft 8 kts 68°
2026-04-22 15:13 12.98428 80.16314 51 ft 11 kts 75°
2026-04-22 15:14 12.98455 80.16386 53 ft 1 kts 61°
2026-04-22 15:14 12.98466 80.16415 52 ft 9 kts 69°
2026-04-22 15:14 12.98486 80.16462 52 ft 3 kts 58°
2026-04-22 15:14 12.98501 80.16504 55 ft 10 kts 70°
2026-04-22 15:15 12.98536 80.16599 52 ft 14 kts 68°
2026-04-22 15:15 12.98566 80.16699 53 ft 13 kts 73°
2026-04-22 15:15 12.98617 80.16767 51 ft 12 kts
2026-04-22 15:15 12.98715 80.16732 57 ft 19 kts 344°
2026-04-22 15:16 12.98790 80.16825 57 ft 23 kts 69°
2026-04-22 15:16 12.98853 80.17015 54 ft 33 kts 72°
2026-04-22 15:16 12.98938 80.17223 57 ft 32 kts 69°
2026-04-22 15:16 12.99033 80.17444 57 ft 30 kts 66°
2026-04-22 15:17 12.99123 80.17667 54 ft 32 kts 62°
2026-04-22 15:17 12.99242 80.17672 56 ft 22 kts 339°
2026-04-22 15:17 12.99278 80.17603 57 ft 12 kts 261°
2026-04-22 15:17 12.99218 80.17434 53 ft 58 kts 250°
2026-04-22 15:18 12.98945 80.16746 54 ft 148 kts 255°
2026-04-22 15:18 12.98493 80.15565 538 ft 194 kts 252°
2026-04-22 15:18 12.98025 80.14250 1853 ft 191 kts 255°
2026-04-22 15:18 12.97962 80.12948 3112 ft 194 kts 302°
2026-04-22 15:19 12.98994 80.12030 3822 ft 219 kts 352°
2026-04-22 15:19 13.00524 80.12170 4875 ft 229 kts 22°
2026-04-22 15:19 13.02135 80.12688 5471 ft 267 kts 19°
2026-04-22 15:19 13.04034 80.13085 6202 ft 292 kts 13°
2026-04-22 15:20 13.05407 80.13292 6675 ft 310 kts 12°
2026-04-22 15:20 13.08417 80.13740 7613 ft 343 kts 14°
2026-04-22 15:20 13.10855 80.14119 8299 ft 363 kts 14°
2026-04-22 15:20 13.13405 80.14508 8967 ft 379 kts 14°
2026-04-22 15:21 13.16076 80.14884 9600 ft 393 kts 14°
2026-04-22 15:21 13.18747 80.15565 10437 ft 399 kts 33°
2026-04-22 15:21 13.20810 80.17388 11378 ft 401 kts 60°
2026-04-22 15:21 13.22116 80.19927 12184 ft 406 kts 73°
2026-04-22 15:22 13.23140 80.22649 12873 ft 412 kts 77°
2026-04-22 15:22 13.24055 80.25463 13530 ft 418 kts 79°
2026-04-22 15:22 13.24954 80.28322 14159 ft 423 kts 79°
2026-04-22 15:22 13.25884 80.31206 14775 ft 427 kts 78°
2026-04-22 15:23 13.26863 80.34102 15391 ft 431 kts 77°
2026-04-22 15:23 13.27898 80.37007 16006 ft 433 kts 76°
2026-04-22 15:23 13.28980 80.39901 16637 ft 435 kts 77°
2026-04-22 15:23 13.29408 80.42929 17562 ft 429 kts 100°
2026-04-22 15:24 13.28729 80.45876 18686 ft 417 kts 114°
2026-04-22 15:24 13.27733 80.48644 19332 ft 421 kts 118°
2026-04-22 15:24 13.26594 80.51436 19893 ft 426 kts 120°
2026-04-22 15:24 13.25385 80.54223 20440 ft 429 kts 120°
2026-04-22 15:25 13.24140 80.57029 20969 ft 433 kts 121°
2026-04-22 15:25 13.22885 80.59848 21474 ft 436 kts 121°
2026-04-22 15:25 13.21620 80.62690 21937 ft 440 kts 121°
2026-04-22 15:25 13.20336 80.65560 22312 ft 443 kts 122°
2026-04-22 15:26 13.19043 80.68440 22696 ft 446 kts 121°
2026-04-22 15:26 13.17773 80.71349 23071 ft 448 kts 121°
2026-04-22 15:26 13.16519 80.74291 23432 ft 451 kts 120°
2026-04-22 15:26 13.15283 80.77255 23775 ft 453 kts 120°
2026-04-22 15:27 13.14060 80.80248 24128 ft 455 kts 121°
2026-04-22 15:27 13.12710 80.83192 24472 ft 457 kts 123°
2026-04-22 15:27 13.11263 80.86104 24765 ft 460 kts 124°
2026-04-22 15:27 13.09775 80.89025 25053 ft 462 kts 124°
2026-04-22 15:28 13.08283 80.91949 25338 ft 464 kts 124°
2026-04-22 15:28 13.06788 80.94888 25610 ft 466 kts 124°
2026-04-22 15:28 13.05293 80.97849 25879 ft 468 kts 124°
2026-04-22 15:28 13.03804 81.00817 26142 ft 470 kts 124°
2026-04-22 15:29 13.02311 81.03809 26392 ft 471 kts 124°
2026-04-22 15:29 13.00842 81.06773 26724 ft 471 kts 123°
2026-04-22 15:29 12.99365 81.09772 27070 ft 470 kts 123°
2026-04-22 15:30 12.96930 81.14747 27632 ft 469 kts 123°
2026-04-22 15:30 12.94985 81.18751 28082 ft 468 kts 123°
2026-04-22 15:30 12.93539 81.21738 28412 ft 468 kts 123°
2026-04-22 15:30 12.92096 81.24729 28741 ft 467 kts 123°
2026-04-22 15:31 12.90658 81.27718 29071 ft 467 kts 123°
2026-04-22 15:31 12.89223 81.30703 29398 ft 466 kts 123°
2026-04-22 15:31 12.87795 81.33681 29720 ft 466 kts 123°
2026-04-22 15:31 12.86370 81.36655 30042 ft 465 kts 123°
2026-04-22 15:32 12.84947 81.39626 30355 ft 464 kts 123°
2026-04-22 15:32 12.83542 81.42564 30665 ft 464 kts 123°
2026-04-22 15:32 12.82122 81.45533 30972 ft 463 kts 122°
2026-04-22 15:32 12.80706 81.48493 31271 ft 463 kts 122°
2026-04-22 15:33 12.79290 81.51455 31568 ft 462 kts 122°
2026-04-22 15:33 12.77876 81.54414 31868 ft 462 kts 122°
2026-04-22 15:33 12.76463 81.57368 32157 ft 461 kts 122°
2026-04-22 15:33 12.75049 81.60325 32437 ft 461 kts 122°
2026-04-22 15:34 12.74118 81.62271 32615 ft 460 kts 122°
2026-04-22 15:34 12.72708 81.65216 32894 ft 460 kts 122°
2026-04-22 15:34 12.71300 81.68159 33169 ft 459 kts 122°
2026-04-22 15:34 12.69893 81.71098 33420 ft 459 kts 122°
2026-04-22 15:35 12.68490 81.74030 33670 ft 458 kts 122°
2026-04-22 15:35 12.67086 81.76963 33921 ft 458 kts 122°
2026-04-22 15:35 12.65687 81.79890 34163 ft 458 kts 122°
2026-04-22 15:35 12.64304 81.82785 34399 ft 457 kts 122°
2026-04-22 15:36 12.62891 81.85746 34633 ft 457 kts 122°
2026-04-22 15:36 12.61516 81.88632 34856 ft 456 kts 122°
2026-04-22 15:36 12.60109 81.91596 35078 ft 456 kts 122°
2026-04-22 15:36 12.58748 81.94477 35299 ft 456 kts 122°
2026-04-22 15:37 12.57381 81.97401 35491 ft 456 kts 121°
2026-04-22 15:37 12.56083 82.00365 35674 ft 456 kts 120°
2026-04-22 15:37 12.54845 82.03352 35888 ft 455 kts 119°
2026-04-22 15:37 12.53635 82.06346 36093 ft 454 kts 118°
2026-04-22 15:38 12.52444 82.09339 36279 ft 454 kts 118°
2026-04-22 15:38 12.50086 82.15341 36612 ft 454 kts 118°
2026-04-22 15:38 12.48914 82.18356 36773 ft 454 kts 118°
2026-04-22 15:39 12.47752 82.21361 36919 ft 455 kts 118°
2026-04-22 15:39 12.46599 82.24371 37068 ft 455 kts 116°
2026-04-22 15:39 12.43138 82.35756 37567 ft 456 kts 111°
2026-04-22 15:40 12.40561 82.48300 38095 ft 453 kts 114°
2026-04-22 15:40 12.35320 82.59671 38934 ft 443 kts 123°
2026-04-22 15:40 12.30829 82.69278 38957 ft 450 kts 121°
2026-04-22 15:41 12.24220 82.84795 38972 ft 462 kts 119°
2026-04-22 15:41 12.14581 83.08828 38988 ft 476 kts 120°
2026-04-22 15:42 12.12314 83.15212 38915 ft 480 kts 114°
2026-04-22 15:42 12.10396 83.21781 38942 ft 484 kts 113°
2026-04-22 15:43 12.08492 83.28401 38955 ft 487 kts 113°
2026-04-22 15:43 12.06579 83.35059 38963 ft 490 kts 113°
2026-04-22 15:44 12.04668 83.41705 38968 ft 490 kts 113°
2026-04-22 15:44 12.02744 83.48390 38974 ft 490 kts 113°
2026-04-22 15:45 12.00823 83.55068 38979 ft 490 kts 113°
2026-04-22 15:45 11.98901 83.61746 38982 ft 490 kts 113°
2026-04-22 15:46 11.96988 83.68396 38986 ft 490 kts 113°
2026-04-22 15:46 11.94678 83.74939 38990 ft 490 kts 118°
2026-04-22 15:47 11.92055 83.81365 38962 ft 490 kts 120°
2026-04-22 15:47 11.89351 83.87760 38944 ft 486 kts 121°
2026-04-22 15:48 11.88094 83.90880 38926 ft 474 kts 114°
2026-04-22 15:48 11.86964 83.94041 38927 ft 476 kts 119°
2026-04-22 15:48 11.85633 83.97157 38773 ft 481 kts 124°
2026-04-22 15:48 11.84071 84.00083 38933 ft 471 kts 133°
2026-04-22 15:49 11.78497 84.09465 38870 ft 458 kts 128°
2026-04-22 15:49 11.72329 84.21626 38896 ft 445 kts 125°
2026-04-22 15:49 11.67898 84.31218 38317 ft 444 kts 122°
2026-04-22 15:50 11.65389 84.37153 37469 ft 460 kts 122°
2026-04-22 15:50 11.61371 84.46733 36811 ft 470 kts 122°
2026-04-22 15:50 11.56201 84.59180 35965 ft 481 kts 122°
2026-04-22 15:50 11.51101 84.71700 35861 ft 474 kts 121°
2026-04-22 15:51 11.41288 84.95308 33543 ft 239 kts 108°